Погода в Ворсине

Россия / Калужская область     55°13′30″N   36°38′38″E
темп.,
°C
ветер,
м/с
пор.,
м/с
влажн.,
%
обл.,
%
осадки,
мм/ч
давл.,
гПа
погр.,
м
29 июля, чт
чт2900:00+16ю2710056 0.4 1008223
03:00+17зюз3799100 0.6 1007391
06:00+17з3898100 0.0 1008353
09:00+20зсз468128 0.1 1007763
12:00+25зсз465547 0.0 10071531
15:00+26зсз3652100 0.1 10071759
18:00+25зсз3654100 0.0 1006566
21:00+21зюз117378 0.0 100611
30 июля, пт
пт3000:00+20ю2274100 0.0 100620
03:00+17з3991100 0.8 1006254
06:00+17юз1298100 2.8 100663
09:00+20зюз349063 3.1 1006503
12:00+25з355660 0.5 10051509
15:00+26з37486 0.6 10051913
18:00+23зсз49587 0.0 1005701
21:00+19зюз247428 0.0 100666
31 июля, сб
сб3100:00+16юз35875 0.0 1007101
03:00+14зюз39917 0.0 1007185
06:00+17зюз312700 0.0 1006471
09:00+21зюз512510 0.0 10071428
12:00+25зюз69355 0.0 10061870
15:00+26з69330 0.0 10062244
18:00+25з58428 0.0 10071910
21:00+18юз34655 0.0 100877
1 августа, вс
вс100:00+15зюз247714 0.0 101065
03:00+15ююз2278100 0.0 101022
06:00+16ю2573100 0.0 1010122
09:00+17ю31093100 0.8 1009341
12:00+20ююз41089100 0.9 1009479
15:00+19зюз3129699 3.5 1009558
18:00+22зюз4881100 0.8 1008844
21:00+19юз229389 1.1 100934
2 августа, пн
пн200:00+17ююз239598 0.0 100950
03:00+16юз229550 0.0 101025
06:00+16ююз23951 0.0 100977
09:00+22ююв236915 0.0 1008348
12:00+27ююв3444100 0.0 10061436
15:00+29ю5846100 0.0 10032228
18:00+19сз119457 7.0 100347
21:00+18юв349768 11.6 100172